www.pogodaiklimat.ru

Погода и климат >> Архив погоды >> Мексика >> Felipe Carrillo Puerto


ПОГОДА в Felipe Carrillo Puerto

  • Прогноз погоды в Felipe Carrillo Puerto
  • Монитор погоды в Felipe Carrillo Puerto
  • Климат города

АРХИВ ПОГОДЫ в Felipe Carrillo Puerto

Время (UTC), дата Ветер
(напр.,м/с)
 
Видим.   Явления Облачность Т
(С)
Тd
(С)
f
(%)
Тe
(С)
Тes
(С)
Комфортность P
(гПа)
Po
(гПа)
Тmin
(С)
Tmax
(С)
R
(мм)
R24
(мм)
S
(см)
12 13.07 штиль 0 10 км 1/1 200 м
[Cu med, cong]
+25.0 +24.4 96 +35 +35 очень
душно
1016.5 1015.3 +24.1 +32.8
15 13.07 ЮВ 2 10 км 3/3 240 м
[Cu med, cong]
+31.2 +25.9 73 +46 +55 опасность
перегрева
1017.6 1016.4
18 13.07 В 1 10 км 3/3 240 м
[Cu med, cong]
+34.6 +26.3 62 +51 +69 опасность
перегрева
1017.8 1016.7 +24.1 +35.6
12 14.07 штиль 0 10 км 1/1 200 м
[Cu med, cong]
+24.8 +24.5 98 +35 +35 очень
душно
1016.8 1015.6 +24.0 +35.6
15 14.07 В 1 10 км 4/4 240 м
[Cu med, cong]
+30.4 +26.5 80 +47 +56 опасность
перегрева
1017.7 1016.6
18 14.07 ЮВ 2 10 км 3/3 240 м
[Cu med, cong]
+34.8 +26.8 63 +52 +68 опасность
перегрева
1017.7 1016.5 +24.0 +35.8
21 14.07 ЮВ 1 10 км 3/3 240 м
[Cu med, cong]
+35.3 +27.4 64 +54 +64 опасность
перегрева
1016.2 1015.1
12 15.07 штиль 0 10 км 1/1 200 м
[Cu med, cong]
+24.0 +23.6 98 +33 +33 очень
душно
1016.0 1014.9 +23.2 +35.8
15 15.07 ЮВ 1 10 км 3/3 240 м
[Cu med, cong]
+30.0 +25.8 78 +45 +55 опасность
перегрева
1016.9 1015.8
18 15.07 В 1 10 км 3/3 240 м
[Cu med, cong]
+34.8 +24.6 56 +48 +66 опасность
перегрева
1016.8 1015.7 +23.2 +36.0
21 15.07 В 1 10 км 4/4 240 м
[Cu med, cong]
+35.8 +25.5 55 +50 +58 опасность
перегрева
1015.0 1013.9
00 16.07 В 1 10 км 3/3 200 м
[Cu med, cong]
+31.7 +25.4 69 +46 +46 опасность
перегрева
1014.7 1013.6 +23.2 +37.2
12 16.07 штиль 0 10 км 1/1 200 м
[Cu med, cong]
+24.2 +23.3 95 +32 +33 очень
душно
1016.1 1015.0 +23.5 +37.2
15 16.07 В 1 10 км 4/4 240 м
[Cu med, cong]
+31.6 +24.5 66 +44 +53 опасность
перегрева
1017.3 1016.1
18 16.07 ЮВ 1 10 км 4/4 240 м
[Cu med, cong]
+33.8 +26.6 66 +51 +66 опасность
перегрева
1017.1 1016.0 +23.5 +35.0
12 17.07 штиль 0 10 км 1/1 200 м
[Cu med, cong]
+24.8 +24.2 96 +34 +35 очень
душно
1018.2 1017.0 +23.2 +35.0
15 17.07 В 1 10 км 3/3 240 м
[Cu med, cong]
+31.2 +25.0 70 +45 +56 опасность
перегрева
1017.3 1016.1
18 17.07 В 1 10 км 4/4 240 м
[Cu med, cong]
+34.8 +26.2 61 +51 +66 опасность
перегрева
1017.9 1016.7 +23.2 +35.8
21 17.07 В 1 10 км 3/3 240 м
[Cu med, cong]
+36.0 +25.7 56 +51 +61 опасность
перегрева
1016.3 1015.1
00 18.07 ЮВ 2 10 км 1/1 200 м
[Cu med, cong]
+32.6 +25.9 68 +48 +48 опасность
перегрева
1016.7 1015.6 +23.2 +37.6
12 18.07 штиль 0 10 км 1/1 200 м
[Cu med, cong]
+24.2 +23.5 96 +33 +33 очень
душно
1016.2 1015.0 +24.0 +37.6
15 18.07 В 1 10 км 3/3 240 м
[Cu med, cong]
+31.6 +26.0 72 +47 +58 опасность
перегрева
1017.1 1015.9
18 18.07 ЮВ 1 10 км 4/4 240 м
[Cu med, cong]
+36.2 +25.4 54 +50 +66 опасность
перегрева
1016.5 1015.4 +24.0 +37.2
21 18.07 ЮВ 1 10 км 3/3 240 м
[Cu med, cong]
+34.6 +26.0 61 +50 +60 опасность
перегрева
1015.2 1014.1
00 19.07 В 1 10 км 1/1 200 м
[Cu med, cong]
+32.8 +25.5 66 +48 +48 опасность
перегрева
1014.7 1013.5 +24.0 +37.2
12 19.07 штиль 0 10 км 1/1 200 м
[Cu med, cong]
+25.2 +24.3 95 +35 +36 очень
душно
1014.7 1013.6 +23.3 +37.2
15 19.07 В 1 10 км 1/1 240 м
[Cu med, cong]
+32.8 +25.2 64 +47 +60 опасность
перегрева
1015.4 1014.3
18 19.07 ЮВ 1 10 км 3/3 240 м
[Cu med, cong]
+35.6 +26.8 61 +53 +72 опасность
перегрева
1014.7 1013.6 +23.3 +36.4
21 19.07 В 2 10 км 1/1 240 м
[Cu med, cong]
+35.8 +24.5 52 +48 +58 опасность
перегрева
1013.6 1012.4

 

Местоположение метеостанции Felipe Carrillo Puerto (Мексика): широта 19.70 долгота -87.90 высота над уровнем моря 12 м.

В архиве по умолчанию представлена погода в Felipe Carrillo Puerto за последнюю неделю. Архивные данные за месяц целиком и за предыдущие месяцы, начиная с января 2011 года, Вы можете получить, выбрав интересующий диапазон дат из раскрывающегося списка и нажав кнопку "Ввод!".


*Определитесь, кто Вы:
робот инопланетянин человек

Внимание! Время в таблицах - всемирное. Для получения местного времени необходимо прибавить поправку, которая в Felipe Carrillo Puerto равна -6 ч.

Смотрите также архив погоды в соседних городах и на ближайших метеорологических станциях:

Погода в Valladolid (Мексика) (113 км)
Погода в Chetumal (Мексика) (142 км)
Погода в Merida (Мексика) (231 км)
Погода в Merida 2 (Мексика) (237 км)
Погода в Belize (Белиз) (245 км)
Погода в Progreso (Мексика) (255 км)
Погода в Campeche (Мексика) (278 км)
Погода в Flores (Гватемала) (373 км)
Погода в Cabo San Antonio (Куба) (390 км)
Погода в Roatan (Гондурас) (404 км)

Пояснения к столбцам:

Ветер - указаны скорость ветра в м/с - средняя за 10 мин, порывы в срок и между сроками (в фигурных скобках) и направление, откуда дует ветер: С - северный, СВ - северо-восточный, В - восточный, ЮВ - юго-восточный, Ю - южный, ЮЗ - юго-западный, З - западный, СЗ - северо-западный.
Видимость - горизонтальная дальность видимости в метрах или километрах. При видимости от 1 до 10 км при отсутствии осадков обычно наблюдается дымка, при ухудшении видимости до 1 км и менее - туман. В сухую погоду видимость может ухудшаться дымом, пылью или мглою.
Явления - указаны атмосферные явления, наблюдавшиеся в срок или в последний час перед сроком; фигурными скобками обозначены явления, наблюдавшиеся между сроками (за 1-3 часа до срока); квадратными скобками обозначены град или гололедные отложения с указанием их диаметра в мм.
Облачность - указаны через наклонную черту общая и нижняя облачность в баллах и высота нижней границы облаков в метрах; квадратными скобками обозначены формы облаков: Ci - перистые, Cs - перисто-слоистые, Cc - перисто-кучевые, Ac - высококучевые, As - высокослоистые, Sc - слоисто-кучевые, Ns - слоисто-дождевые, Cu - кучевые, Cb - кучево-дождевые. Подробнее классификацию облаков см. в Атласе облаков (PDF).
T - Температура воздуха - температура, измеренная на высоте 2 м над землей.
Td - Температура точки росы - температура, при понижении до которой содержащийся в воздухе водяной пар достигнет насыщения.
f - Относительная влажность воздуха - влажноcть воздуха, измеренная на высоте 2 м над землей.
Te - Эффективная температура - температура, которую ощущает одетый по сезону человек в тени. Характеристика душности погоды. При расчете учитывается влияние влажности воздуха и скорости ветра на теплоощущения человека.
Tes - Эффективная температура на солнце - температура, которую ощущает человек, с поправкой на солнечный нагрев. Характеристика знойности погоды. Зависит от высоты солнца над горизонтом, облачности и скорости ветра. Ночью, в пасмурную погоду, а также при ветре 12 м/с и более поправка равна нулю.
P - Атмосферное давление - приведенное к уровню моря атмосферное давление.
Po - Атмосферное давление - измеренное на уровне метеостанции атмосферное давление.
Tmin - Минимальная температура - минимум температуры воздуха на высоте 2 м над землей.
Tmax - Максимальная температура - максимум температуры воздуха на высоте 2 м над землей.
R - Количество осадков - Количество выпавших осадков за период времени, мм. При наведении курсора мыши на число - период времени, за который выпало указанное количество осадков.
R24 - Количество осадков - Количество выпавших осадков за 24 часа, мм.
S - Снежный покров - Высота снежного покрова, см. При наведении курсора мыши на число - состояние снежного покрова и степень покрытия местности в баллах.